This demonstration page uses our WeatherBlox Daily Observations layout. Learn more.

Hourly Observations for August 25, 2016

Temp ( °F °C ) Dew Point ( °F °C ) Humidity (%) Winds ( mph kmh ) Pressure ( in mb ) Visibility ( mi km ) Precip ( " mm )
12:54 am 00:54 Clear 59 15 57 13.9 93 93 N 5 7 30.06 1018 10 16.0934 0 0
1:54 am 01:54 Clear 59 15 57 13.9 93 93 N 3 6 30.07 1018 10 16.0934 0 0
2:54 am 02:54 Clear 58 14.4 56 13.3 93 93 N 5 7 30.07 1018 10 16.0934 0 0
3:54 am 03:54 Clear 57 13.9 55 12.8 93 93 Calm 30.08 1019 10 16.0934 0 0
4:54 am 04:54 Clear 59 15 56 13.3 90 90 N 3 6 30.08 1019 10 16.0934 0 0
5:54 am 05:54 Clear 59 15 56 13.3 90 90 N 5 7 30.08 1019 10 16.0934 0 0
6:54 am 06:54 Sunny 59 15 56 13.3 90 90 NNW 3 6 30.1 1019 10 16.0934 0 0
7:54 am 07:54 Sunny 59 15 57 13.9 93 93 Calm 30.12 1020 10 16.0934 0 0
8:54 am 08:54 Cloudy 61 16.1 57 13.9 87 87 Calm 30.13 1020 10 16.0934 0 0
9:54 am 09:54 Mostly Cloudy with Light Rain 63 17.2 59 15 87 87 N 6 9 30.12 1020 10 16.0934 0.01 0.254
10:54 am 10:54 Sunny 65 18.3 61 16.1 87 87 NNW 6 9 30.14 1021 10 16.0934 0 0.0254
11:54 am 11:54 Sunny 68 20 60 15.6 76 76 N 10 17 30.14 1021 10 16.0934 0 0
12:54 pm 12:54 Mostly Cloudy 73 22.8 59 15 62 62 N 7 11 30.14 1021 10 16.0934 0 0
1:54 pm 13:54 Partly Cloudy 75 23.9 59 15 58 58 N 8 13 30.13 1020 10 16.0934 0 0
2:54 pm 14:54 Mostly Sunny 77 25 59 15 54 54 NNE 9 15 30.13 1020 10 16.0934 0 0
3:54 pm 15:54 Sunny 77 25 60 15.6 56 56 NE 9 15 30.12 1020 10 16.0934 0 0
4:54 pm 16:54 Sunny 78 25.6 59 15 52 52 NE 9 15 30.1 1019 10 16.0934 0 0
5:54 pm 17:54 Sunny 75 23.9 59 15 58 58 NNE 8 13 30.1 1019 10 16.0934 0 0
6:54 pm 18:54 Sunny 76 24.4 61 16.1 60 60 NE 8 13 30.09 1019 10 16.0934 0 0
7:54 pm 19:54 Sunny 70 21.1 62 16.7 76 76 NNE 8 13 30.11 1020 10 16.0934 0 0
8:54 pm 20:54 Clear 65 18.3 60 15.6 84 84 NNE 6 9 30.13 1020 10 16.0934 0 0
9:54 pm 21:54 Clear 65 18.3 60 15.6 84 84 N 6 9 30.14 1021 10 16.0934 0 0
10:54 pm 22:54 Clear 64 17.8 60 15.6 87 87 N 5 7 30.15 1021 10 16.0934 0 0
11:54 pm 23:54 Clear 60 15.6 58 14.4 93 93 N 3 6 30.15 1021 10 16.0934 0 0

Powered by AerisWeather